Other Public Products
Issued by NWS Grand Forks, ND

Home | Current Version | Previous Version | Text Only | Print | Product List | Glossary Off
Versions: 1 2 3 4 5 6 7 8 9 10 11 12 13 14 15 16 17 18 19 20 21 22 23 24 25 26 27 28 29 30 31 32 33 34 35 36 37 38 39 40 41 42 43 44 45 46 47 48 49 50

000
FPUS83 KFGF 201431
OPUFGF
PRAIRIE TO PINES WEATHER ROUNDUP
NATIONAL WEATHER SERVICE EASTERN NORTH DAKOTA/GRAND FORKS ND
900 AM CDT SAT SEP 20 2014

 **SATELLITE DATA USED TO AUGMENT SKY COVER AT AUTOMATED STATIONS**
 *****  WEATHER ACROSS EASTERN NORTH DAKOTA  *****

CITY           SKY/WX    TMP DP  RH WIND       PRES   REMARKS
GRAND FORKS    MOSUNNY   56  53  90 S5        29.80S
GRAND FORKS AF SUNNY     56  56  99 SW6       29.81S
GRAND CITY NWS   N/A     57 N/A N/A NW3         N/A
BUXTON           N/A     57  56  99 SW2         N/A
DEVILS LAKE    MOSUNNY   59  52  77 W8        29.78F
FARGO          SUNNY     56  53  90 SW5       29.83R
WAHPETON ARPT  SUNNY     57  54  88 W5        29.85S
$$

 *****  WEATHER ACROSS CENTRAL AND WESTERN NORTH DAKOTA  *****

CITY           SKY/WX    TMP DP  RH WIND       PRES   REMARKS
JAMESTOWN      SUNNY     57  54  89 W6        29.83F
BISMARCK       PTSUNNY   58  52  80 SW7       29.88R
MINOT          LGT RAIN  57  50  77 NW24G38   29.86R
MINOT AFB      TSTM      55  54  94 NW18G29   29.84F FOG
GARRISON         N/A     58  56  93 W6        29.84F
WILLISTON      PTSUNNY   57  50  77 N8        29.94R
DICKINSON      MOSUNNY   56  48  74 W15       29.93R
HETTINGER      SUNNY     58  47  66 W17G24    29.98R
$$

 *****  OTHER OBSERVATIONS NORTHEAST NORTH DAKOTA  *****

CITY           SKY/WX    TMP DP  RH WIND       PRES   REMARKS
WALHALLA       CLOUDY    54  54 100 S3        29.76F
LANGDON        CLOUDY    54  54 100 SW6       29.77F
CAVALIER       CLOUDY    54  54 100 S9        29.78S FOG
GRAFTON        CLOUDY    54  54 100 SW5       29.79S
CANDO          FAIR      55  54  94 W5        29.78S
FORT TOTTEN    NOT AVBL
ROLLA          FAIR      54  54 100 NW25G33   29.81R
RUGBY          FAIR      54  54 100 NW13G18   29.81R
 ***** THE ABOVE OBSERVATIONS ARE NON NWS ARE NOT QUALITY
        CONTROLLED AND MAY MIS-REPORT RAIN FOR SNOW...
$$

 *****  OTHER OBSERVATIONS SOUTHEAST NORTH DAKOTA *****

CITY           SKY/WX    TMP DP  RH WIND       PRES   REMARKS
COOPERSTOWN    NOT AVBL
VALLEY CITY    FAIR      57  57 100 W7        29.83F
OAKES            N/A     59  59 100 SW9       29.86S
GWINNER        SUNNY     59  59 100 SW7       29.87S
SHEYENNE NWR     N/A     57  56  98 SW3       29.95
BUFFALO          N/A     58  56  93 W5          N/A
WYNDMERE         N/A     59  59 100 W5          N/A
 ***** THE ABOVE OBSERVATIONS ARE NON NWS ARE NOT QUALITY
       CONTROLLED AND MAY MIS-REPORT RAIN FOR SNOW...
$$

  *****  WEATHER ACROSS NORTHERN MINNESOTA  *****

CITY           SKY/WX    TMP DP  RH WIND       PRES   REMARKS
FLAG ISLAND    CLOUDY    48  46  93 W12       29.73S
WARROAD        PTSUNNY   52  46  82 W7        29.76S
ROSEAU         PTSUNNY   52  46  82 W8        29.78R HAZE
HALLOCK        PTSUNNY   54  54 100 CALM      29.78R
THF RVR FALLS  CLOUDY    55  52  88 SW6       29.80S
HALSTAD          N/A     56  54  91 SW3         N/A
FOSSTON        CLOUDY    55  52  88 CALM      29.81S
BAUDETTE       PTSUNNY   51  47  86 VRB6      29.75R
WASKISH        PTSUNNY   55  48  76 W7        29.77S
CROOKSTON      PTSUNNY   55  52  88 CALM      29.81S
$$
  *****  WEATHER ACROSS CENTRAL AND WEST MINNESOTA  *****

CITY           SKY/WX    TMP DP  RH WIND       PRES   REMARKS
BEMIDJI        CLOUDY    56  52  86 W13       29.79R
PARK RAPIDS    CLOUDY    57  54  89 NW12      29.81R
WADENA         CLOUDY    57  54  88 NW8       29.83R
DETROIT LAKES  CLOUDY    55  54  94 W6        29.84R
MOORHEAD       SUNNY     57  57 100 W3        29.84S
FERGUS FALLS   CLOUDY    55  54  94 W7        29.85S
ELBOW LAKE     CLOUDY    56  54  94 W7        29.85S
MORRIS MN      MOSUNNY   59  55  88 NW7       29.85S
STAPLES        PTSUNNY   57  54  88 NW12      29.82R
WHEATON        SUNNY     59  55  88 W6        29.87S
$$
  *****  WEATHER ELSEWHERE ACROSS MINNESOTA  *****

CITY           SKY/WX    TMP DP  RH WIND       PRES   REMARKS
DULUTH         CLOUDY    60  53  77 NW17G26   29.72R
INTRNTL FALLS  CLOUDY    52  51  97 W7        29.72R FOG
ELY            DRIZZLE   57  55  94 W12G18    29.68R
CLOQUET        CLOUDY    61  54  77 W12       29.73R
BRAINERD       MOSUNNY   57  53  86 NW6       29.80R
HIBBING        CLOUDY    57  52  83 NW10G21   29.74R
ALEXANDRIA     PTSUNNY   58  55  90 NW13      29.85R
SAINT CLOUD    SUNNY     64  58  80 NW15      29.79R
MINNEAPOLIS    MOSUNNY   65  58  78 W9        29.78R
$$

  *****  WEATHER ACROSS SOUTH DAKOTA  *****

CITY           SKY/WX    TMP DP  RH WIND       PRES   REMARKS
SIOUX FALLS    MOSUNNY   66  58  75 W6        29.90R
BROOKINGS      NOT AVBL
WATERTOWN      SUNNY     60  56  86 W8        29.89R
HURON          SUNNY     61  53  75 CALM      29.91R
SISSETON         N/A     62  58  86 NW5       29.85S
ABERDEEN       SUNNY     62  54  74 CALM      29.89R
MITCHELL       SUNNY     63  57  81 W5        29.93R
PIERRE         SUNNY     60  51  72 W10       29.94R
MOBRIDGE       SUNNY     57  53  86 CALM      29.89S
RAPID CITY     SUNNY     63  48  58 W5        30.08R
$$

  *****  SOME WEATHER IN NEARBY STATES *****

CITY           SKY/WX    TMP DP  RH WIND       PRES   REMARKS
GLASGOW MT     SUNNY     52  46  80 NW8       30.07R
GREAT FALLS MT PTCLDY    48  41  76 CALM      30.22R
CHEYENNE WY    SUNNY     54  43  66 W8        30.27R
SCOTTSBLUFF NE SUNNY     56  49  77 NW9       30.17R
OMAHA NE       PTSUNNY   69  64  84 S8        29.92R
DES MOINES IA  CLOUDY    69  65  86 SW7       29.85F
DAVENPORT IA   CLOUDY    65  61  87 S17       29.85F FOG
CHICAGO IL     CLOUDY    67  56  67 SW14G21   29.88F
EAU CLAIRE WI  CLOUDY    68  64  87 W9        29.72R
LA CROSSE WI   CLOUDY    69  62  78 W3        29.77R
$$

  *****  SOME NATIONAL WEATHER *****

CITY           SKY/WX    TMP DP  RH WIND       PRES   REMARKS
LA GUARDIA NY  PTSUNNY   72  55  56 S9G21     30.27F
RALEIGH NC     MOSUNNY   69  59  70 NE8       30.21F
ATLANTA GA     PTSUNNY   70  63  78 E13       30.17R
NEW ORLEANS LA MOSUNNY   81  71  71 E14       29.98R
OKLAHOMA CITY  PTSUNNY   73  70  88 S8        30.03S FOG
ALBUQUERQUE NM SUNNY     64  56  75 N10       30.17R
SALT LAKE CITY PTCLDY    58  51  78 SE6       30.16R
LOS ANGELES CA CLOUDY    69  62  78 E5        29.92R
BOISE ID       CLEAR     56  44  64 SE8       30.12R
SEATTLE WA     CLOUDY    59  55  88 N12       30.11R FOG
$$

*** WEATHER ACROSS MANITOBA...SASKATCHEWAN AND ONTARIO ***
                ***ONTARIO***

CITY           SKY/WX    TMP DP  RH WIND       PRES   REMARKS
GERALDTON      LGT RAIN  55  55 100 E8        29.52R
THUNDER BAY    LGT RAIN  63  61  94 W6        29.53
SIOUX LOOKOUT  CLOUDY    55  54  94 N5        29.65
TORONTO        PTSUNNY   66  59  77 S15       29.98F
BIG TROUT LK   CLOUDY    39  34  81 N8        29.70R
PICKLE LAKE    CLOUDY    45  45 100 NE7       29.66R
DRYDEN         CLOUDY    55  54  94 NW5       29.68R
KENORA         CLOUDY    52  50  93 W6        29.72
$$
                *** MANITOBA***

CITY           SKY/WX    TMP DP  RH WIND       PRES   REMARKS
BRANDON        LGT RAIN  52  52 100 W24       29.78R FOG
DAUPHIN        RAIN      54  52  94 CALM      29.74R FOG
ISLAND LAKE    CLOUDY    45  39  81 CALM      29.71R
PILOT MOUND    NOT AVBL
THE PAS        MOSUNNY   50  48  93 W9        29.64R
THOMPSON       LGT RAIN  39  39 100 E5        29.68R
WINNIPEG       PTSUNNY   50  50 100 S8        29.75F
LYNN LAKE      LGT RAIN  41  39  93 E8        29.65R
CHURCHILL      PTSUNNY   37  36  93 N13       29.75R
GILLAM         PTSUNNY   39  36  87 NE8       29.74R
$$
                ***SASKATCHEWAN***

CITY           SKY/WX    TMP DP  RH WIND       PRES   REMARKS
ESTEVAN        PTSUNNY   52  52 100 NW8       29.89
KINDERSLEY     PTCLDY    48  41  76 W13       30.05R
LLOYDMINSTER   PTCLDY    48  37  66 W20G25    29.98R
PRINCE ALBERT  PTSUNNY   54  41  62 W18       29.79R
REGINA         MOSUNNY   52  50  93 W13G20    29.92R


USA.gov is the U.S. government's official web portal to all federal, state and local government web resources and services.